Overview Statistics Trail Chart Weather Telemetry Raw packets
 

This is the latest recevied weather packets stored in our database for station/object DL5DI-H. If no packets are shown the sender has not sent any weather packets the latest 10 day(s).

<< 11 12 13 14 15 16 17 >>
Time Temp. Humidity Pressure Rain* Wind** Luminosity Snow
1788520202 27.22° C 59% 1014.4 hPa 0 mm - - -
1788519601 27.22° C 59% 1014.4 hPa 0 mm - - -
1788519002 27.22° C 60% 1014.6 hPa 0 mm - - -
1788518401 27.22° C 61% 1014.7 hPa 0 mm - - -
1788517801 27.22° C 61% 1014.7 hPa 0 mm - - -
1788517202 26.67° C 63% 1014.7 hPa 0 mm - - -
1788516602 26.11° C 64% 1014.8 hPa 0 mm - - -
1788516002 26.11° C 64% 1014.9 hPa 0 mm - - -
1788515402 25.56° C 66% 1014.8 hPa 0 mm - - -
1788514800 25.56° C 65% 1014.7 hPa 0 mm - - -
1788514202 25° C 69% 1014.7 hPa 0 mm - - -
1788513602 25° C 70% 1014.6 hPa 0 mm - - -
1788513000 24.44° C 71% 1014.7 hPa 0 mm - - -
1788512402 24.44° C 72% 1014.8 hPa 0 mm - - -
1788511800 24.44° C 73% 1014.9 hPa 0 mm - - -
1788511202 23.89° C 74% 1015 hPa 0 mm - - -
1788510602 23.89° C 75% 1015.1 hPa 0 mm - - -
1788510001 23.33° C 77% 1015.3 hPa 0 mm - - -
1788509400 23.33° C 77% 1015.3 hPa 0 mm - - -
1788508801 22.78° C 78% 1015.5 hPa 0 mm - - -
1788508202 22.78° C 78% 1015.6 hPa 0 mm - - -
1788507602 22.22° C 81% 1015.8 hPa 0 mm - - -
1788507002 21.67° C 82% 1016 hPa 0 mm - - -
1788506401 21.67° C 82% 1016 hPa 0 mm - - -
1788505802 21.67° C 84% 1016.2 hPa 0 mm - - -

* Rain latest hour (hover to see other rain measurements)
** Current wind speed in m/s (hover to see current wind gust speed)